Change the Weather History Date:

Monday, June 3, 2013

  Actual Average Record
Temperature  
Mean Temperature 58 °F -  
Max Temperature 62 °F 71 °F - ()
Min Temperature 54 °F 51 °F - ()
Degree Days  
Heating Degree Days 7    
Growing Degree Days 8 (Base 50)    
Moisture  
Dew Point 55 °F    
Average Humidity 94    
Maximum Humidity 100    
Minimum Humidity 80    
Precipitation  
Precipitation 0.55 in 0.13 in - ()
Sea Level Pressure  
Sea Level Pressure 29.86 in    
Wind  
Wind Speed 7 mph ()    
Max Wind Speed 18 mph    
Max Gust Speed -    
Visibility 5.6 miles    
Events Rain , Thunderstorm    
T = Trace of Precipitation, MM = Missing Value Source: Averaged Metar Reports

Daily Weather History Graph

Daily Weather History Graph

Search for Another Location

Airport or City:

Trip Planner

Search our weather history database for the weather conditions in past years. The results will help you decide how hot, cold, wet, or windy it might be!

Date:

Astronomy

Jun. 03, 2013 Rise Set
Actual Time 4:34 AM CEST 8:43 PM CEST
Civil Twilight 3:51 AM CEST 9:26 PM CEST
Nautical Twilight 2:50 AM CEST 10:28 PM CEST
Astronomical Twilight 1:11 AM CEST 12:06 AM CEST
Moon 1:51 AM CEST (6/3) 3:30 PM CEST (6/3)
Length of Visible Light 17h 35m
Length of Day
16h 08m
Waning Crescent, 24% of the Moon is Illuminated
Jun 3
Waning Crescent
Jun 8
New
Jun 16
First Quarter
Jun 23
Full
Jun 30
Last Quarter

Hourly Weather History & Observations

Time (CEST) Temp. Dew Point Humidity Pressure Visibility Wind Dir Wind Speed Gust Speed Precip Events Conditions
12:00 AM 57.2 °F 53.6 °F 88% 29.86 in 6.2 mi SW 4.6 mph - N/A   Scattered Clouds
12:30 AM 55.4 °F 53.6 °F 94% 29.86 in 6.2 mi WSW 4.6 mph - N/A   Scattered Clouds
1:00 AM 57.2 °F 53.6 °F 88% 29.86 in 6.2 mi SW 3.5 mph - N/A   Mostly Cloudy
1:30 AM 57.2 °F 53.6 °F 88% 29.86 in 6.2 mi SSW 3.5 mph - N/A   Mostly Cloudy
2:00 AM 57 °F 53 °F 84% 29.86 in 12 mi SSW 4.5 mph - -   Partly Cloudy
2:00 AM 57.2 °F 53.6 °F 88% 29.86 in 6.2 mi SW 3.5 mph - N/A   Scattered Clouds
2:30 AM 55.4 °F 53.6 °F 94% 29.86 in 6.2 mi SSW 5.8 mph - N/A   Mostly Cloudy
3:00 AM 55.4 °F 53.6 °F 94% 29.86 in 6.2 mi WSW 4.6 mph - N/A   Mostly Cloudy
3:30 AM 55.4 °F 53.6 °F 94% 29.86 in 6.2 mi West 5.8 mph - N/A Rain Light Rain
4:00 AM 55.4 °F 53.6 °F 94% 29.86 in 6.2 mi WSW 6.9 mph - N/A Rain Light Rain
4:30 AM 53.6 °F 51.8 °F 94% 29.86 in 6.2 mi West 6.9 mph - N/A Rain Light Rain
5:00 AM 54 °F 53 °F 97% 29.87 in 4 mi WSW 6.7 mph - - Rain Light Rain
5:00 AM 53.6 °F 53.6 °F 100% 29.86 in 4.3 mi West 6.9 mph - N/A Rain Light Rain
5:30 AM 53.6 °F 53.6 °F 100% 29.86 in 3.1 mi SW 5.8 mph - N/A Rain Light Rain
6:00 AM 53.6 °F 53.6 °F 100% 29.86 in 1.1 mi SW 4.6 mph - N/A Rain Rain
6:30 AM 53.6 °F 53.6 °F 100% 29.86 in 1.0 mi SW 4.6 mph - N/A Rain Rain
7:00 AM 55.4 °F 55.4 °F 100% 29.86 in 1.6 mi SSW 3.5 mph - N/A Rain Rain
7:30 AM 55.4 °F 55.4 °F 100% 29.83 in 1.6 mi SW 5.8 mph - N/A Rain Rain
8:00 AM 56 °F 55 °F 96% 29.86 in 4 mi West 13.4 mph - - Rain Light Rain
8:00 AM 55.4 °F 55.4 °F 100% 29.83 in 3.7 mi West 13.8 mph - N/A Rain Light Rain
8:30 AM 55.4 °F 55.4 °F 100% 29.86 in 5.0 mi West 11.5 mph - N/A Rain Light Rain
9:00 AM 55.4 °F 55.4 °F 100% 29.86 in 6.2 mi WSW 10.4 mph - N/A Rain Light Rain
9:30 AM 57.2 °F 55.4 °F 94% 29.86 in 6.2 mi WSW 10.4 mph - N/A Rain Light Rain
10:00 AM 57.2 °F 55.4 °F 94% 29.86 in 6.2 mi West 9.2 mph - N/A   Mostly Cloudy
10:30 AM 57.2 °F 55.4 °F 94% 29.86 in 6.2 mi West 9.2 mph - N/A   Mostly Cloudy
11:00 AM 57 °F 56 °F 93% 29.86 in 9 mi WSW 11.2 mph - -   Partly Cloudy
11:00 AM 57.2 °F 55.4 °F 94% 29.86 in 6.2 mi WSW 9.2 mph - N/A   Mostly Cloudy
11:30 AM 57.2 °F 55.4 °F 94% 29.86 in 6.2 mi WSW 9.2 mph - N/A   Mostly Cloudy
12:00 PM 57.2 °F 55.4 °F 94% 29.86 in 6.2 mi WSW 9.2 mph - N/A   Mostly Cloudy
12:30 PM 57.2 °F 55.4 °F 94% 29.86 in 6.2 mi WSW 10.4 mph - N/A   Mostly Cloudy
1:00 PM 59.0 °F 57.2 °F 94% 29.86 in 6.2 mi WSW 12.7 mph - N/A   Mostly Cloudy
1:30 PM 60.8 °F 57.2 °F 88% 29.86 in 6.2 mi WSW 12.7 mph - N/A   Mostly Cloudy
2:00 PM 60 °F 58 °F 92% 29.85 in 6 mi SW 15.7 mph - -   Partly Cloudy
2:00 PM 60.8 °F 59.0 °F 94% 29.83 in 6.2 mi SW 12.7 mph - N/A   Mostly Cloudy
2:30 PM 59.0 °F 57.2 °F 94% 29.83 in 6.2 mi WSW 15.0 mph - N/A   Mostly Cloudy
3:00 PM 59.0 °F 57.2 °F 94% 29.86 in 4.3 mi WSW 13.8 mph - N/A Rain , Thunderstorm Light Thunderstorms and Rain
3:30 PM 59.0 °F 57.2 °F 94% 29.86 in 5.0 mi West 13.8 mph - N/A Thunderstorm Thunderstorm
4:00 PM 59.0 °F 57.2 °F 94% 29.86 in 6.2 mi WSW 12.7 mph - N/A   Mostly Cloudy
4:30 PM 59.0 °F 55.4 °F 88% 29.86 in 6.2 mi West 12.7 mph - N/A   Scattered Clouds
5:00 PM 62 °F 57 °F 80% 29.85 in 12 mi WSW 15.7 mph - -   Partly Cloudy
5:00 PM 62.6 °F 59.0 °F 88% 29.86 in 6.2 mi West 13.8 mph - N/A   Partly Cloudy
5:30 PM 62.6 °F 59.0 °F 88% 29.83 in 6.2 mi West 18.4 mph - N/A   Partly Cloudy
6:00 PM 60.8 °F 57.2 °F 88% 29.86 in 6.2 mi West 13.8 mph - N/A   Mostly Cloudy
6:30 PM 60.8 °F 59.0 °F 94% 29.86 in 4.3 mi West 13.8 mph - N/A Rain , Thunderstorm Light Thunderstorms and Rain
7:00 PM 57.2 °F 53.6 °F 88% 29.89 in 2.2 mi NW 9.2 mph - N/A Rain , Thunderstorm Thunderstorms and Rain
7:30 PM 55.4 °F 55.4 °F 100% 29.89 in 3.7 mi West 5.8 mph - N/A Rain , Thunderstorm Light Thunderstorms and Rain
8:00 PM 55 °F 54 °F 97% 29.88 in 4 mi SW 8.9 mph - - Rain , Thunderstorm Thunderstorms and Rain
8:00 PM 55.4 °F 55.4 °F 100% 29.86 in 3.7 mi SW 5.8 mph - N/A Rain , Thunderstorm Light Thunderstorms and Rain
8:30 PM 55.4 °F 55.4 °F 100% 29.89 in 3.7 mi West 8.1 mph - N/A Rain , Thunderstorm Thunderstorms and Rain
9:00 PM 55.4 °F 55.4 °F 100% 29.86 in 4.3 mi WSW 12.7 mph - N/A Rain Light Rain Showers
9:30 PM 55.4 °F 53.6 °F 94% 29.89 in 6.2 mi West 9.2 mph - N/A Rain Light Rain Showers
10:00 PM 55.4 °F 55.4 °F 100% 29.89 in 6.2 mi WSW 5.8 mph - N/A   Mostly Cloudy
10:30 PM 55.4 °F 53.6 °F 94% 29.89 in 6.2 mi SW 4.6 mph - N/A   Mostly Cloudy
11:00 PM 55 °F 55 °F 98% 29.90 in 9 mi WSW 4.5 mph - -   Partly Cloudy
11:00 PM 55.4 °F 53.6 °F 94% 29.89 in 6.2 mi SW 3.5 mph - N/A   Mostly Cloudy
11:30 PM 57.2 °F 55.4 °F 94% 29.89 in 6.2 mi WNW 8.1 mph - N/A   Mostly Cloudy